Back to catalog

POSAT 2

AliveAmateur RadioSSO
NORAD 63488·PAYLOAD·🇵🇹 Portugal

Launched Jan 14, 2025 from Vandenberg Space Force Base

Loading…

Next Passes (next 24 hours)

TLE

FreshSource: Space-Track

Epoch: Sep 14, 2026, 13:10 UTC

1 63488U 25009DR  26257.54878867  .00010281  00000-0  55564-3 0  9990
2 63488  97.4778 331.0444 0005728 183.6525 176.4666 15.14867526 80160

Track POSAT 2 in real time with AllMySat

Download on the App Store